Weather History for McTavish ARS, QC

Change the Weather History Date:

Tuesday, October 2, 2012

  Actual Average Record
Temperature  
Mean Temperature 60 °F -  
Max Temperature 66 °F - - ()
Min Temperature 55 °F - - ()
Degree Days  
Heating Degree Days 4    
Growing Degree Days 10 (Base 50)    
Moisture  
Dew Point 54 °F    
Average Humidity 81    
Maximum Humidity 92    
Minimum Humidity 55    
Precipitation  
Precipitation 0.00 in - - ()
Sea Level Pressure  
Sea Level Pressure 29.97 in    
Wind  
Wind Speed 4 mph ()    
Max Wind Speed 6 mph    
Max Gust Speed -    
T = Trace of Precipitation, MM = Missing Value Source: Averaged Metar Reports

Daily Weather History Graph

Daily Weather History Graph

Search for Another Location

Airport:

Trip Planner

Search our weather history database for the weather conditions in past years. The results will help you decide how hot, cold, wet, or windy it might be!

Date:

Astronomy

Oct. 02, 2012 Rise Set
Actual Time 6:54 AM EDT 6:31 PM EDT
Civil Twilight 6:24 AM EDT 7:01 PM EDT
Nautical Twilight 5:50 AM EDT 7:35 PM EDT
Astronomical Twilight 5:15 AM EDT 8:10 PM EDT
Moon 7:32 PM EDT (10/2) 9:28 AM EDT (10/2)
Length of Visible Light 12h 36m
Length of Day
11h 37m
Waning Gibbous, 94% of the Moon is Illuminated
Oct 2
Waning Gibbous
Oct 8
Last Quarter
Oct 15
New
Oct 21
First Quarter
Oct 29
Full

Hourly Weather History & Observations

Time (EDT) Temp. Dew Point Humidity Pressure Visibility Wind Dir Wind Speed Gust Speed Precip Events Conditions
12:00 AM 56.1 °F 52.3 °F 87% 29.88 in - SW 4.6 mph - N/A   Unknown
1:00 AM 57.6 °F 54.0 °F 88% 29.89 in - West 3.5 mph - N/A   Unknown
2:00 AM 57 °F 54 °F 88% 29.89 in - West 4.6 mph - -  
2:00 AM 57.2 °F 54.5 °F 91% 29.89 in - West 4.6 mph - N/A   Unknown
3:00 AM 56.7 °F 54.0 °F 91% 29.89 in - West 5.8 mph - N/A   Unknown
4:00 AM 56.3 °F 53.6 °F 91% 29.91 in - WNW 5.8 mph - N/A   Unknown
5:00 AM 55.9 °F 53.2 °F 91% 29.91 in - WNW 5.8 mph - N/A   Unknown
6:00 AM 56.1 °F 53.8 °F 92% 29.93 in - WNW 5.8 mph - N/A   Unknown
7:00 AM 55.8 °F 52.9 °F 90% 29.95 in - West 5.8 mph - N/A   Unknown
8:00 AM 56 °F 53 °F 87% 29.97 in - SSW 2.3 mph - -  
8:00 AM 56.3 °F 53.2 °F 89% 29.97 in - SSW 2.3 mph - N/A   Unknown
9:00 AM 57.2 °F 53.6 °F 88% 29.98 in - WSW 3.5 mph - N/A   Unknown
10:00 AM 59.4 °F 55.0 °F 86% 29.99 in - South 3.5 mph - N/A   Unknown
11:00 AM 59.5 °F 54.3 °F 83% 29.99 in - South 2.3 mph - N/A   Unknown
12:00 PM 63.0 °F 55.2 °F 76% 29.99 in - South 4.6 mph - N/A   Unknown
1:00 PM 64.6 °F 53.4 °F 67% 29.99 in - SW 4.6 mph - N/A   Unknown
2:00 PM 65 °F 53 °F 55% 29.97 in - SSW 5.8 mph - -  
2:00 PM 65.1 °F 52.7 °F 64% 29.97 in - SSW 5.8 mph - N/A   Unknown
3:00 PM 65.8 °F 54.0 °F 65% 29.97 in - SW 3.5 mph - N/A   Unknown
4:00 PM 65.8 °F 52.7 °F 62% 29.99 in - SW 2.3 mph - N/A   Unknown
5:00 PM 65.1 °F 54.1 °F 68% 29.99 in - SW 2.3 mph - N/A   Unknown
6:00 PM 64.0 °F 54.0 °F 70% 30.00 in - South 3.5 mph - N/A   Unknown
7:00 PM 61.9 °F 54.5 °F 77% 30.01 in - SSW 2.3 mph - N/A   Unknown
8:00 PM 61 °F 55 °F 74% 30.02 in - SSW 3.5 mph - -  
8:00 PM 61.0 °F 54.9 °F 80% 30.02 in - SSW 3.5 mph - N/A   Unknown
9:00 PM 60.4 °F 54.5 °F 81% 30.03 in - SW 3.5 mph - N/A   Unknown
10:00 PM 57.9 °F 53.6 °F 86% 30.04 in - WSW 1.2 mph - N/A   Unknown
11:00 PM 56.5 °F 53.2 °F 89% 30.05 in - WNW 2.3 mph - N/A   Unknown